Location: Zagreb
(45.8000°N, 16.0000°E)
Time: 20:22:36
(UTC+01:00)

DX 1 - Pass Details

Date: 03 November 2020
Orbit: 619 x 630 km, 98.5° (Epoch: 01 December)

Event Time Altitude Azimuth Distance (km) Brightness Sun altitude
Rises 03:59:50 0° 118° (ESE) 2,890 ? -28.1°
Reaches altitude 10° 04:02:49 10° 95° (E) 1,988 ? -27.6°
Maximum altitude 04:05:16 15° 60° (ENE) 1,677 ? -27.2°
Drops below altitude 10° 04:07:44 10° 25° (NNE) 1,996 ? -26.8°
Sets 04:10:44 0° 3° (N) 2,907 ? -26.2°
